Temp
11 10 10 10 10 9 9 8 8 8 7 7 7 7 7 6 6 5 6 6 6 6 6 6 5 6 5 5 4 4 5 5
11 10 10 10 10 9 9 8 8 7 7 7 7 7 7 6 6 6 6 6 6 6 5 5 5 5 5 4 4 4 5 4
10 10 10 10 9 9 8 7 7 7 7 7 6 6 6 6 6 6 6 6 5 5 5 5 5 4 4 4 4 4 4 3
10 10 10 10 9 9 8 7 6 6 6 6 6 6 6 6 6 6 6 6 5 5 5 4 5 4 4 4 4 4 4 4
10 10 10 9 9 9 9 8 6 6 6 5 5 6 6 6 6 5 6 5 5 5 4 4 4 4 4 3 3 3 3 4
9 9 9 9 9 9 8 7 7 5 4 5 5 5 6 6 5 5 6 5 5 4 4 4 4 4 3 3 3 2 2 4
9 9 9 9 9 9 8 7 7 6 5 5 4 5 5 5 5 5 5 4 4 4 4 3 3 2 1 2 4 3 2 3
9 9 9 9 9 9 8 7 7 6 6 4 5 4 4 3 4 5 4 4 4 4 4 3 3 3 3 3 4 2 3 2
8 8 8 8 9 8 7 7 7 6 6 5 5 4 4 3 4 4 4 4 4 4 4 4 3 3 3 2 3 2 2 2
8 8 8 8 8 8 7 7 6 6 5 5 3 3 5 5 3 4 3 3 3 4 4 3 3 2 2 2 2 1 2 2
8 7 7 8 8 7 7 6 6 6 6 6 6 4 4 4 3 3 3 3 3 2 2 2 2 1 1 2 2 1 1 1
7 7 7 7 7 7 6 6 6 6 6 6 6 6 5 3 3 2 3 4 3 2 2 2 2 1 1 1 1 1 1 1
6 6 7 7 7 7 6 6 6 6 6 6 6 5 4 3 4 2 2 3 2 2 2 1 2 1 1 1 1 1 0 1
6 6 6 6 6 6 6 5 6 5 5 5 6 6 5 5 4 3 3 2 2 2 1 2 1 1 1 1 1 0 -0 0
5 5 5 5 5 5 5 4 3 4 5 5 5 5 5 5 3 3 2 1 2 2 1 1 1 1 1 0 0 0 -0 0
4 4 4 4 5 5 5 5 4 4 5 5 5 5 4 5 5 3 2 2 2 2 2 1 1 1 0 0 0 1 0 0
2 3 3 4 4 4 4 4 4 3 3 4 4 4 4 4 4 4 4 3 2 2 2 2 1 1 0 -0 0 -0 -0 -0
2 1 2 4 4 4 4 4 3 4 2 3 3 4 4 4 4 3 3 3 2 2 1 1 1 0 -0 -0 -0 -0 0 -0
2 2 0 1 3 3 3 3 3 3 3 1 2 2 4 3 3 3 3 3 2 1 1 1 1 0 -0 -0 -1 -1 -1 -1
2 2 2 1 1 1 2 2 3 2 3 1 1 1 1 2 2 2 2 2 1 1 0 0 -0 -0 -1 -1 -1 -1 -1 -1
Height
3118 3118 3117 3117 3118 3119 3121 3123 3125 3128 3130 3132 3136 3138 3139 3140 3143 3148 3150 3151 3152 3155 3157 3159 3161 3162 3163 3163 3161 3159 3157 3162
3115 3115 3115 3115 3115 3116 3117 3119 3122 3124 3125 3129 3132 3134 3135 3137 3141 3144 3147 3149 3150 3151 3154 3156 3158 3160 3160 3159 3157 3155 3155 3158
3112 3111 3111 3111 3112 3113 3114 3114 3116 3118 3121 3123 3126 3128 3131 3133 3136 3138 3142 3146 3146 3149 3150 3152 3155 3155 3156 3152 3154 3154 3155 3157
3106 3107 3107 3107 3107 3108 3109 3110 3112 3113 3116 3118 3121 3122 3125 3129 3133 3134 3138 3141 3143 3145 3148 3150 3151 3152 3152 3148 3153 3152 3153 3154
3101 3101 3102 3101 3103 3103 3103 3106 3108 3110 3112 3113 3117 3117 3120 3125 3127 3130 3134 3137 3139 3141 3144 3146 3148 3148 3147 3148 3152 3150 3151 3153
3094 3095 3096 3093 3097 3097 3099 3100 3103 3106 3108 3108 3111 3112 3114 3118 3121 3126 3129 3132 3135 3138 3139 3142 3143 3145 3145 3141 3146 3149 3148 3151
3088 3087 3089 3087 3089 3092 3093 3095 3097 3100 3103 3105 3106 3106 3110 3113 3115 3120 3123 3128 3131 3132 3135 3136 3139 3141 3142 3136 3140 3146 3146 3148
3083 3082 3082 3081 3083 3086 3088 3090 3091 3093 3096 3098 3100 3101 3105 3108 3110 3115 3118 3121 3124 3126 3128 3130 3131 3132 3134 3130 3129 3136 3139 3143
3076 3075 3076 3076 3077 3080 3081 3084 3085 3087 3089 3091 3096 3096 3099 3103 3106 3109 3111 3115 3117 3119 3120 3121 3124 3125 3126 3126 3126 3134 3136 3139
3069 3068 3068 3069 3071 3074 3075 3076 3078 3081 3083 3085 3087 3088 3091 3095 3101 3103 3105 3108 3109 3111 3111 3112 3116 3119 3120 3123 3125 3128 3131 3134
3061 3064 3062 3062 3064 3066 3068 3071 3072 3074 3076 3079 3081 3083 3086 3090 3093 3096 3098 3101 3101 3105 3104 3106 3107 3110 3113 3117 3120 3123 3125 3128
3054 3056 3056 3055 3056 3059 3061 3064 3065 3068 3070 3072 3074 3077 3079 3082 3085 3090 3091 3093 3096 3097 3099 3100 3102 3104 3111 3114 3115 3118 3121 3124
3046 3047 3050 3049 3048 3050 3053 3056 3058 3061 3063 3066 3068 3070 3072 3075 3079 3082 3084 3086 3089 3091 3093 3093 3096 3098 3102 3108 3112 3114 3117 3119
3035 3039 3041 3043 3044 3045 3047 3050 3053 3055 3056 3058 3061 3063 3066 3067 3070 3075 3077 3078 3080 3083 3085 3086 3091 3094 3097 3102 3105 3107 3110 3111
3027 3030 3031 3034 3035 3038 3039 3042 3045 3046 3047 3049 3053 3056 3058 3060 3061 3068 3069 3070 3072 3076 3079 3081 3086 3091 3094 3095 3097 3100 3104 3106
3024 3022 3026 3027 3028 3030 3032 3034 3035 3038 3041 3043 3046 3048 3051 3052 3053 3059 3060 3062 3065 3069 3072 3075 3079 3083 3089 3088 3089 3094 3098 3100
3018 3018 3016 3017 3020 3022 3024 3025 3028 3030 3033 3033 3035 3040 3043 3045 3046 3050 3053 3054 3058 3061 3064 3066 3073 3075 3081 3082 3086 3087 3091 3094
3011 3014 3011 3009 3012 3014 3017 3018 3019 3019 3020 3023 3024 3028 3032 3037 3038 3042 3046 3046 3050 3053 3058 3060 3065 3068 3072 3075 3079 3080 3085 3088
3005 3005 3007 3002 3001 3003 3005 3007 3009 3009 3009 3011 3013 3016 3021 3027 3028 3032 3036 3038 3041 3045 3049 3052 3057 3061 3064 3068 3073 3074 3078 3080
2992 2992 2993 2993 2991 2993 2993 2994 2995 2996 2999 2999 3001 3003 3009 3016 3019 3022 3026 3029 3032 3035 3039 3045 3048 3052 3057 3061 3066 3068 3070 3070
Wind_Speed
14 13 12 11 11 13 16 20 22 23 24 24 21 22 23 23 20 21 19 17 14 14 12 10 11 11 10 10 10 13 19 20
16 15 13 15 14 14 16 19 22 25 27 26 26 22 24 25 25 20 20 18 17 16 12 12 13 11 11 11 12 14 21 16
19 17 17 17 19 20 19 24 26 26 27 28 29 29 27 28 24 20 21 22 19 18 14 15 16 15 14 18 15 19 19 18
25 22 21 22 21 23 22 23 26 29 31 31 30 31 30 28 25 23 26 27 20 19 20 17 19 19 17 23 18 18 19 13
29 28 26 26 26 23 22 26 27 28 29 33 34 33 31 28 27 29 23 29 29 25 25 24 23 24 21 21 13 14 15 20
33 30 29 31 27 27 26 28 27 29 30 33 32 33 32 30 29 30 30 34 30 29 25 24 23 23 21 27 18 21 17 20
34 33 31 34 31 30 29 27 29 31 30 32 32 33 32 31 31 33 33 34 30 31 28 24 21 24 25 34 30 21 19 19
34 36 35 37 34 31 32 31 30 31 32 30 30 35 29 33 34 31 32 33 32 32 30 28 28 32 27 29 32 23 20 20
32 39 41 40 37 35 34 34 30 29 27 28 38 37 38 34 32 33 33 32 32 33 28 29 31 32 32 30 28 23 18 22
30 28 35 40 38 36 35 35 31 29 29 28 30 34 31 29 32 33 33 32 33 34 30 28 28 33 30 27 27 23 24 22
39 31 32 36 37 36 36 35 33 32 29 29 31 34 34 30 25 27 30 29 31 30 33 31 31 33 33 31 29 25 23 22
41 35 32 35 37 35 39 37 34 32 31 31 30 30 31 30 29 27 27 31 32 33 34 29 28 31 30 30 30 26 25 27
39 35 31 33 39 36 38 37 38 35 35 33 30 31 29 30 44 32 34 31 36 34 29 32 30 32 32 29 26 23 19 25
43 36 34 30 34 34 35 37 39 36 35 33 35 33 34 34 35 37 32 37 33 32 30 33 34 32 32 28 29 32 27 30
39 37 26 25 24 27 33 39 38 43 42 39 37 36 34 37 43 39 35 34 33 30 31 32 33 31 29 30 28 28 31 30
26 28 25 21 24 25 28 32 39 42 43 43 39 39 38 38 39 43 37 35 36 30 30 33 34 34 30 33 29 27 30 28
21 25 34 28 24 26 22 29 33 37 45 47 48 43 43 40 42 40 38 38 37 34 35 37 34 36 33 34 31 30 28 26
24 26 30 37 35 34 31 29 31 37 42 50 49 48 46 45 45 44 39 40 40 36 37 37 36 38 35 38 33 32 29 27
36 33 23 36 44 43 43 43 40 40 41 46 51 53 50 49 49 46 43 41 41 40 39 40 39 40 40 38 37 33 30 30
41 42 43 42 45 48 50 49 49 48 48 47 52 52 50 51 52 49 46 44 43 43 43 41 42 43 39 38 38 34 32 32
Wind_Direction
261 252 256 254 253 245 242 236 231 232 231 223 215 225 259 264 233 255 248 239 238 242 247 254 250 247 253 257 257 274 291 292
257 252 256 257 260 250 241 237 236 235 234 232 229 234 251 244 241 247 251 244 242 244 239 248 238 241 250 251 237 258 294 287
257 255 255 254 256 255 241 230 229 234 236 234 234 235 241 241 235 238 236 245 243 246 242 242 238 231 241 246 257 288 300 296
254 255 256 257 255 258 246 240 234 229 231 234 237 240 239 238 241 240 239 248 243 258 256 259 243 236 246 254 265 283 287 273
252 253 254 253 251 252 247 246 232 232 232 234 233 243 244 241 236 239 251 249 250 255 259 266 253 242 245 261 258 268 257 272
253 253 255 255 248 247 247 242 244 240 236 240 238 240 241 241 237 235 240 242 246 251 259 265 250 247 259 260 266 287 250 262
251 252 252 255 251 249 252 248 246 242 240 246 247 242 243 238 236 232 238 236 248 253 258 251 239 258 262 256 270 258 253 256
247 250 250 254 256 253 253 251 251 245 242 238 250 249 253 240 237 234 236 239 247 254 255 242 249 256 264 259 263 246 241 255
262 250 248 250 255 253 249 250 250 245 244 235 234 246 251 242 235 237 238 242 248 253 255 255 251 256 254 259 259 246 234 244
264 265 253 249 250 252 249 251 251 247 241 236 239 245 248 246 230 237 240 245 251 254 257 259 253 244 248 244 245 240 239 234
266 270 265 251 244 247 249 247 249 248 242 238 233 239 247 243 235 243 243 256 240 251 259 257 254 240 236 230 232 237 244 238
271 268 265 252 245 243 245 241 247 248 246 243 240 238 236 238 247 245 240 240 250 259 261 258 250 233 230 229 223 230 252 240
267 263 261 254 246 244 241 238 247 249 252 247 247 243 244 235 236 234 247 241 257 259 252 251 239 224 224 228 227 240 239 244
272 268 257 255 248 246 245 246 245 250 256 252 250 249 241 244 237 239 239 252 252 255 252 243 231 227 224 222 231 240 229 236
267 277 263 251 248 248 246 241 245 241 247 249 248 248 247 250 240 240 241 251 250 251 246 239 232 228 223 230 234 234 230 236
269 268 266 253 246 247 251 252 249 245 248 252 252 252 249 250 253 239 241 249 247 246 240 234 229 225 224 226 230 235 236 240
229 268 272 255 253 247 249 254 255 250 248 249 250 247 250 250 252 246 242 246 241 241 234 232 227 229 222 235 234 232 232 237
222 248 268 274 264 260 251 258 260 255 247 247 249 245 244 245 248 245 244 243 237 240 233 230 228 226 227 235 233 235 237 241
234 245 251 266 267 270 267 267 267 260 258 253 250 250 242 242 243 241 242 238 237 237 232 232 227 224 228 240 234 234 237 241
256 257 257 265 274 274 276 274 269 268 260 251 252 250 251 247 243 240 240 237 236 236 233 229 228 225 229 230 232 229 233 244